1507428000.07,56332,10.31,72984.3,-2.37,-2.99,-3.39,0,*5C
1507428001.27,56333,10.38,72986.3,-2.35,-2.87,-3.35,0,*5C
1507428002.5,56334,10.31,72984.8,-2.37,-2.87,-3.27,0,*5A
1507428003.72,56335,10.31,72984.8,-2.37,-2.87,-3.15,0,*5A
1507428004.94,56336,10.31,72984.0,-2.37,-2.87,-3.11,0,*5D
1507428006.16,56337,10.31,72984.5,-2.37,-2.87,-3.15,0,*58
1507428007.39,56338,10.38,72984.8,-2.35,-2.71,-3.11,0,*58
1507428008.61,56339,10.38,72986.3,-2.37,-2.87,-3.15,0,*56
1507428009.83,56340,10.38,72986.8,-2.37,-2.87,-3.15,0,*58
1507428011.02,56341,10.31,72982.5,-2.35,-2.87,-3.15,0,*5B
1507428012.25,56342,10.31,72976.8,-2.37,-2.87,-3.27,0,*5B
1507428013.44,56343,10.31,72980.0,-2.35,-2.87,-3.23,0,*5C
1507428014.63,56344,10.38,72982.8,-2.35,-2.87,-3.23,0,*5B
1507428015.85,56345,10.31,72982.5,-2.37,-2.87,-3.15,0,*5D
1507428017.05,56346,10.31,72980.5,-2.35,-2.87,-3.27,0,*5D
1507428018.25,56347,10.38,72982.5,-2.35,-2.95,-3.23,0,*5B
1507428019.47,56348,10.31,72978.5,-2.37,-2.91,-3.27,0,*56
1507428020.66,56349,10.31,72980.0,-2.35,-2.87,-3.23,0,*56
1507428021.88,56350,10.31,72982.5,-2.37,-2.91,-3.39,0,*50
1507428023.1,56351,10.38,72980.8,-2.37,-2.91,-3.31,0,*59
1507428024.3,56352,10.31,72978.3,-2.35,-2.87,-3.27,0,*58
1507428025.5,56353,10.38,72986.3,-2.35,-2.83,-3.27,0,*5D
1507428026.7,56354,10.38,72984.3,-2.35,-2.87,-3.35,0,*5D
1507428027.9,56355,10.38,72986.5,-2.35,-2.95,-3.39,0,*53
1507428029.12,56356,10.31,72986.0,-2.35,-2.99,-3.51,0,*52
1507428030.36,56357,10.31,72986.5,-2.37,-3.03,-3.63,0,*52
1507428031.61,56358,10.31,72986.3,-2.37,-2.99,-3.51,0,*5E
1507428032.83,56359,10.31,72984.5,-2.35,-2.99,-3.51,0,*5D
1507428034.05,56360,10.31,72984.3,-2.35,-2.99,-3.51,0,*57
1507428035.26,56361,10.31,72982.5,-2.35,-2.99,-3.47,0,*51
1507428036.47,56362,10.31,72980.3,-2.35,-2.95,-3.39,0,*57
1507428037.69,56363,10.31,72978.0,-2.37,-2.99,-3.39,0,*58
1507428038.9,56364,10.31,72976.3,-2.35,-2.95,-3.39,0,*51
1507428040.14,56365,10.31,72978.8,-2.37,-2.99,-3.43,0,*53
1507428041.37,56366,10.31,72978.3,-2.37,-3.03,-3.31,0,*57
1507428042.56,56367,10.38,72982.3,-2.35,-2.99,-3.35,0,*52
1507428043.77,56368,10.38,72982.5,-2.35,-2.95,-3.39,0,*5D
1507428045.0,56369,10.38,72984.8,-2.33,-2.95,-3.39,0,*5A
1507428046.19,56370,10.38,72982.3,-2.35,-2.99,-3.39,0,*58
1507428047.44,56371,10.31,72986.3,-2.37,-2.99,-3.51,0,*55
1507428048.69,56372,10.38,72988.3,-2.37,-3.03,-3.43,0,*57
1507428049.9,56373,10.38,72990.0,-2.35,-2.99,-3.47,0,*52
1507428051.15,56374,10.38,72994.5,-2.37,-3.03,-3.51,0,*52
1507428052.37,56375,10.38,72992.0,-2.35,-2.99,-3.47,0,*54
1507428053.58,56376,10.31,72990.5,-2.35,-2.99,-3.47,0,*57
1507428054.8,56377,10.38,72992.3,-2.35,-3.07,-3.51,0,*57
1507428056.04,56378,10.31,72990.5,-2.37,-2.99,-3.63,0,*5D
1507428057.26,56379,10.38,72988.8,-2.35,-2.99,-3.63,0,*5E
1507428058.48,56380,10.38,72996.5,-2.37,-3.11,-3.87,0,*51
1507428059.71,56381,10.31,72994.0,-2.37,-3.15,-3.75,0,*59
1507428060.91,56382,10.31,72992.3,-2.35,-3.15,-4.09,0,*54
1507428062.15,56383,10.31,72988.8,-2.37,-3.11,-4.21,0,*59
1507428063.38,56384,10.38,72988.8,-2.37,-3.15,-4.29,0,*52
1507428064.58,56385,10.31,72980.3,-2.35,-3.11,-4.13,0,*5C
1507428065.81,56386,10.31,72980.8,-2.37,-3.11,-4.05,0,*5A
1507428067.01,56387,10.38,72986.8,-2.35,-3.07,-4.13,0,*59
1507428068.23,56388,10.31,72986.0,-2.37,-3.03,-4.09,0,*5B
1507428069.46,56389,10.31,72986.0,-2.37,-3.03,-4.21,0,*50
1507428070.69,56390,10.38,72984.8,-2.37,-3.03,-4.17,0,*5D
1507428071.89,56391,10.38,72976.5,-2.35,-2.95,-3.87,0,*5E
1507428073.08,56392,10.38,72976.5,-2.35,-2.83,-4.05,0,*57
1507428074.31,56393,10.38,72972.3,-2.35,-2.71,-3.75,0,*5B
1507428075.53,56394,10.31,72970.0,-2.35,-2.71,-3.83,0,*55
1507428076.73,56395,10.38,72974.0,-2.35,-2.87,-3.87,0,*59
1507428077.95,56396,10.31,72980.8,-2.37,-2.87,-3.91,0,*5F
1507428079.15,56397,10.38,72986.3,-2.35,-2.87,-3.91,0,*5C
1507428080.35,56398,10.38,72988.5,-2.35,-2.87,-3.83,0,*50
1507428081.59,56399,10.38,72988.0,-2.33,-2.87,-3.63,0,*59
1507428082.83,56400,10.38,72988.8,-2.33,-2.87,-3.71,0,*5D
1507428084.05,56401,10.38,72990.0,-2.35,-2.87,-3.71,0,*5A
1507428085.26,56402,10.38,72988.0,-2.35,-2.95,-3.75,0,*5E
1507428086.45,56403,10.31,72990.3,-2.35,-2.99,-3.83,0,*5A
1507428087.66,56404,10.38,72992.3,-2.35,-2.95,-3.83,0,*51
1507428088.86,56405,10.38,72994.8,-2.35,-2.95,-3.83,0,*50
1507428090.06,56406,10.38,72992.3,-2.35,-2.99,-3.83,0,*5F
1507428091.25,56407,10.38,72998.5,-2.35,-3.07,-3.87,0,*5C
1507428092.48,56408,10.38,72996.0,-2.33,-2.95,-4.05,0,*52
1507428093.71,56409,10.38,72994.8,-2.33,-3.11,-4.61,0,*5C
1507428094.94,56410,10.31,72992.0,-2.33,-3.07,-4.29,0,*5F
1507428096.17,56411,10.31,72992.3,-2.33,-3.15,-4.61,0,*51
1507428097.4,56412,10.31,72988.8,-2.33,-3.15,-4.13,0,*57
1507428098.6,56413,10.38,72990.5,-2.35,-3.07,-3.87,0,*59
1507428099.79,56414,10.38,72988.3,-2.35,-3.07,-3.75,0,*53
1507428101.01,56415,10.38,72986.5,-2.35,-2.99,-3.71,0,*50
1507428102.27,56416,10.38,72984.5,-2.33,-2.95,-3.59,0,*53
1507428103.48,56417,10.38,72986.0,-2.35,-2.83,-3.51,0,*5B
1507428104.72,56418,10.38,72986.3,-2.33,-2.87,-3.51,0,*56
1507428105.97,56419,10.31,72980.5,-2.33,-2.83,-3.51,0,*53
1507428107.21,56420,10.38,72982.3,-2.33,-2.87,-3.51,0,*5D
1507428108.42,56421,10.38,72986.3,-2.35,-2.83,-3.63,0,*5F
1507428109.64,56422,10.38,72988.3,-2.31,-2.79,-3.71,0,*5E
1507428110.87,56423,10.38,72990.5,-2.33,-2.95,-3.83,0,*52
1507428112.12,56424,10.38,72988.3,-2.33,-2.87,-4.01,0,*5B
1507428113.32,56425,10.38,72992.0,-2.31,-2.91,-4.09,0,*57
1507428114.57,56426,10.31,72988.3,-2.33,-2.95,-4.01,0,*5A
1507428115.8,56427,10.38,72990.0,-2.33,-2.95,-3.87,0,*52
1507428117.03,56428,10.31,72988.5,-2.33,-2.99,-3.75,0,*5C
1507428118.27,56429,10.31,72988.8,-2.33,-2.99,-3.71,0,*59
1507428119.5,56430,10.38,72992.8,-2.31,-2.95,-3.51,0,*5D
1507428120.74,56431,10.38,72992.0,-2.33,-2.99,-3.63,0,*53
1507428121.97,56432,10.31,72992.3,-2.31,-2.95,-3.67,0,*5A
1507428123.19,56433,10.38,72994.5,-2.33,-2.99,-3.83,0,*5F
1507428124.41,56434,10.38,72994.3,-2.33,-2.99,-3.95,0,*5F
1507428125.65,56435,10.31,72990.5,-2.31,-2.95,-4.01,0,*5A
1507428126.87,56436,10.31,72986.8,-2.33,-2.99,-4.13,0,*54
1507428128.08,56437,10.38,72984.8,-2.31,-2.95,-3.95,0,*52
1507428129.3,56438,10.31,72984.3,-2.33,-3.07,-3.95,0,*55
1507428130.52,56439,10.38,72984.0,-2.33,-3.07,-3.83,0,*53
1507428131.75,56440,10.31,72986.5,-2.33,-3.07,-3.75,0,*54
1507428132.97,56441,10.38,72982.0,-2.31,-3.03,-3.55,0,*51
1507428134.2,56442,10.31,72980.0,-2.31,-2.95,-3.43,0,*5B
1507428135.44,56443,10.38,72988.3,-2.33,-2.99,-3.47,0,*50
1507428136.67,56444,10.31,72984.0,-2.31,-2.95,-3.43,0,*5D
1507428137.92,56445,10.31,72980.8,-2.33,-2.95,-3.59,0,*55
1507428139.17,56446,10.38,72988.3,-2.33,-2.95,-3.63,0,*5F
1507428140.4,56447,10.31,72980.0,-2.31,-2.95,-3.59,0,*55
1507428141.65,56448,10.31,72984.5,-2.33,-2.99,-3.59,0,*54
1507428142.85,56449,10.31,72980.5,-2.31,-2.91,-3.91,0,*5B
1507428144.06,56450,10.31,72986.3,-2.31,-2.95,-3.79,0,*51
1507428145.28,56451,10.38,72984.8,-2.33,-3.07,-3.83,0,*5D
1507428146.49,56452,10.31,72982.5,-2.31,-2.95,-2.95,0,*50
1507428147.74,56453,10.38,72986.5,-2.33,-3.11,-3.51,0,*57
1507428148.99,56454,10.31,72982.3,-2.33,-3.11,-3.51,0,*50
1507428150.21,56455,10.38,72984.0,-2.31,-3.03,-3.43,0,*53
1507428151.43,56456,10.38,72988.0,-2.33,-3.07,-3.39,0,*5B
1507428152.67,56457,10.38,72986.0,-2.33,-3.07,-3.47,0,*53
1507428153.9,56458,10.38,72982.8,-2.33,-3.07,-3.39,0,*55
1507428155.11,56459,10.31,72978.8,-2.33,-3.07,-3.23,0,*5F
1507428156.33,56460,10.38,72980.3,-2.33,-2.99,-3.23,0,*53
1507428157.56,56461,10.31,72976.8,-2.33,-2.95,-3.15,0,*5B
1507428158.78,56462,10.31,72976.5,-2.33,-2.95,-3.23,0,*5D
1507428159.97,56463,10.38,72982.8,-2.31,-2.91,-3.19,0,*53
1507428161.17,56464,10.38,72982.0,-2.31,-3.03,-4.09,0,*58
1507428162.42,56465,10.38,72986.8,-2.33,-3.07,-4.01,0,*57
1507428163.67,56466,10.38,72990.3,-2.33,-3.03,-4.01,0,*50
1507428164.92,56467,10.38,72990.3,-2.33,-3.11,-4.01,0,*52
1507428166.17,56468,10.31,72988.8,-2.33,-3.11,-4.01,0,*5D
1507428167.37,56469,10.38,72992.3,-2.31,-3.07,-3.83,0,*54
1507428168.6,56470,10.38,72992.5,-2.33,-3.11,-3.87,0,*5D
1507428169.82,56471,10.38,72992.0,-2.33,-3.07,-3.83,0,*5F
1507428171.04,56472,10.38,72996.3,-2.31,-3.03,-3.71,0,*57
1507428172.26,56473,10.31,72988.5,-2.33,-3.11,-3.75,0,*53
1507428173.47,56474,10.38,72988.8,-2.31,-3.07,-3.79,0,*5D
1507428174.69,56475,10.38,72990.5,-2.33,-3.07,-3.75,0,*52
1507428175.91,56476,10.31,72986.8,-2.31,-3.07,-3.71,0,*57
1507428177.15,56477,10.31,72986.5,-2.33,-3.11,-3.71,0,*53
1507428178.37,56478,10.38,72990.5,-2.31,-3.03,-3.55,0,*5B
1507428179.6,56479,10.38,72992.3,-2.33,-3.07,-3.39,0,*56
1507428180.82,56480,10.38,72990.5,-2.33,-2.99,-3.27,0,*59
1507428182.05,56481,10.31,72986.5,-2.33,-2.99,-3.27,0,*58
1507428183.25,56482,10.31,72990.5,-2.31,-2.91,-3.11,0,*54
1507428184.45,56483,10.38,72990.5,-2.31,-2.91,-3.11,0,*55
1507428185.65,56484,10.38,72988.8,-2.31,-2.95,-3.11,0,*56
1507428186.88,56485,10.38,72990.5,-2.33,-2.95,-3.15,0,*51
1507428188.1,56486,10.38,72990.5,-2.33,-2.95,-3.15,0,*52
1507428189.3,56487,10.31,72984.5,-2.31,-2.91,-3.11,0,*51
1507428190.51,56488,10.31,72988.8,-2.31,-2.95,-3.19,0,*52
1507428191.7,56489,10.38,72990.5,-2.31,-2.91,-3.11,0,*5F
1507428192.91,56490,10.31,72988.0,-2.31,-2.95,-3.19,0,*5B
1507428194.11,56491,10.31,72986.3,-2.31,-2.95,-3.31,0,*50
1507428195.33,56492,10.31,72990.3,-2.33,-2.99,-3.35,0,*59
1507428196.55,56493,10.38,72990.5,-2.31,-3.07,-3.47,0,*59
1507428197.77,56494,10.38,72994.5,-2.31,-3.07,-3.47,0,*5E
1507428199.02,56495,10.38,72994.3,-2.33,-3.11,-3.63,0,*5C
1507428200.23,56496,10.38,72992.8,-2.31,-3.03,-3.67,0,*5A
1507428201.44,56497,10.38,72994.0,-2.31,-3.03,-3.79,0,*54
1507428202.64,56498,10.31,72988.0,-2.31,-3.07,-3.79,0,*5F
1507428203.84,56499,10.38,72992.8,-2.31,-3.07,-3.91,0,*58
1507428205.05,56500,10.31,72992.0,-2.31,-3.03,-3.91,0,*5D
1507428206.27,56501,10.31,72988.0,-2.33,-3.11,-3.87,0,*5A
1507428207.47,56502,10.31,72990.8,-2.31,-3.07,-3.83,0,*58
1507428208.7,56503,10.31,72986.8,-2.33,-3.11,-3.75,0,*55
1507428209.91,56504,10.38,72986.0,-2.31,-3.07,-3.55,0,*55
1507428211.11,56505,10.31,72986.0,-2.31,-2.95,-3.23,0,*5F
1507428212.31,56506,10.31,72980.0,-2.31,-2.91,-3.11,0,*59
1507428213.54,56507,10.31,72978.3,-2.33,-2.95,-3.15,0,*5A
1507428214.74,56508,10.38,72980.5,-2.31,-2.83,-3.03,0,*57
1507428215.94,56509,10.38,72976.0,-2.31,-2.79,-3.07,0,*57
1507428217.14,56510,10.38,72982.5,-2.31,-2.83,-3.07,0,*5A
1507428218.34,56511,10.31,72980.8,-2.31,-2.87,-3.11,0,*58
1507428219.53,56512,10.38,72984.5,-2.31,-2.83,-3.11,0,*5F
1507428220.73,56513,10.31,72982.8,-2.31,-2.83,-3.11,0,*5E
1507428221.93,56514,10.31,72982.3,-2.31,-2.91,-3.19,0,*52
1507428223.15,56515,10.31,72984.8,-2.29,-2.95,-3.11,0,*56
1507428224.36,56516,10.31,72984.3,-2.31,-2.95,-3.11,0,*5C
1507428225.57,56517,10.31,72990.3,-2.31,-2.95,-3.19,0,*55
1507428226.76,56518,10.31,72988.8,-2.31,-2.91,-3.19,0,*5E
1507428227.97,56519,10.38,72990.5,-2.31,-2.95,-3.11,0,*53
1507428229.17,56520,10.38,72992.0,-2.31,-2.95,-3.11,0,*59
1507428230.41,56521,10.38,72992.3,-2.33,-2.95,-3.27,0,*5F
1507428231.61,56522,10.38,72992.8,-2.31,-2.95,-3.11,0,*5B
1507428232.82,56523,10.38,72994.3,-2.31,-2.95,-3.11,0,*5A
1507428234.03,56524,10.38,72990.8,-2.29,-2.91,-3.19,0,*58
1507428235.25,56525,10.38,72992.3,-2.29,-2.95,-3.23,0,*54
1507428236.45,56526,10.38,72994.3,-2.31,-2.95,-3.23,0,*5E
1507428237.65,56527,10.31,72988.8,-2.31,-2.91,-3.31,0,*58
1507428238.88,56528,10.38,72994.8,-2.33,-2.99,-3.27,0,*5A
1507428240.08,56529,10.38,72992.8,-2.31,-2.95,-3.31,0,*52
1507428241.28,56530,10.38,72992.8,-2.31,-2.95,-3.23,0,*59
1507428242.49,56531,10.38,72996.0,-2.31,-2.95,-3.31,0,*5B
1507428243.69,56532,10.38,72992.5,-2.31,-3.07,-3.39,0,*5A
1507428244.93,56533,10.31,72994.8,-2.29,-2.95,-3.47,0,*51
1507428246.18,56534,10.31,72994.3,-2.29,-3.03,-3.59,0,*57
1507428247.38,56535,10.31,72992.3,-2.31,-3.11,-3.79,0,*5E
1507428248.61,56536,10.38,72994.5,-2.31,-3.15,-3.71,0,*51
1507428249.83,56537,10.31,72992.8,-2.31,-3.11,-3.67,0,*53
1507428251.05,56538,10.38,72992.3,-2.31,-3.11,-3.59,0,*51
1507428252.25,56539,10.31,72986.5,-2.31,-3.07,-3.35,0,*5D
1507428253.45,56540,10.38,72988.0,-2.31,-3.03,-3.31,0,*53
1507428254.68,56541,10.38,72984.5,-2.33,-3.11,-3.39,0,*5B
1507428255.88,56542,10.38,72984.0,-2.31,-2.95,-3.31,0,*5F
1507428257.07,56543,10.38,72980.8,-2.31,-2.91,-3.23,0,*59
1507428258.27,56544,10.38,72974.8,-2.31,-2.83,-3.11,0,*5C
1507428259.46,56545,10.38,72978.0,-2.31,-2.83,-3.19,0,*55
1507428260.65,56546,10.31,72980.0,-2.31,-2.83,-3.23,0,*5F
1507428261.85,56547,10.31,72982.0,-2.31,-2.95,-3.23,0,*59
1507428263.07,56548,10.38,72990.5,-2.31,-2.91,-3.43,0,*54
1507428264.3,56549,10.38,72992.3,-2.31,-2.95,-3.43,0,*51
1507428265.53,56550,10.31,72986.8,-2.31,-2.95,-3.43,0,*59
1507428266.76,56551,10.31,72986.5,-2.31,-2.95,-3.43,0,*58
1507428267.98,56552,10.38,72990.8,-2.31,-3.03,-3.47,0,*51
1507428269.22,56553,10.38,72990.0,-2.29,-2.95,-3.47,0,*57
1507428270.46,56554,10.38,72992.0,-2.29,-3.03,-3.55,0,*5D
1507428271.68,56555,10.38,72990.5,-2.31,-3.03,-3.55,0,*55
1507428272.92,56556,10.31,72986.5,-2.29,-3.07,-3.55,0,*5B
1507428274.13,56557,10.38,72990.3,-2.27,-2.99,-3.55,0,*52
1507428275.38,56558,10.31,72990.0,-2.29,-3.03,-3.59,0,*5D
1507428276.62,56559,10.31,72986.3,-2.29,-3.03,-3.47,0,*53
1507428277.86,56560,10.38,72986.0,-2.29,-3.07,-3.55,0,*5E
1507428279.08,56561,10.38,72988.8,-2.31,-3.03,-3.47,0,*51
1507428280.3,56562,10.31,72986.8,-2.31,-3.03,-3.43,0,*56
1507428281.5,56563,10.31,72986.3,-2.31,-3.03,-3.35,0,*56
1507428282.7,56564,10.38,72990.3,-2.31,-3.03,-3.35,0,*51
1507428283.91,56565,10.38,72992.5,-2.31,-2.95,-3.35,0,*5E
1507428285.11,56566,10.38,72992.3,-2.31,-3.03,-3.35,0,*53
1507428286.33,56567,10.38,72994.3,-2.31,-3.03,-3.43,0,*53
1507428287.55,56568,10.38,72990.8,-2.31,-3.07,-3.43,0,*58
1507428288.78,56569,10.38,72992.5,-2.31,-3.03,-3.43,0,*5D
1507428289.97,56570,10.38,72992.0,-2.31,-3.03,-3.31,0,*50
1507428291.17,56571,10.38,72990.5,-2.31,-3.07,-3.35,0,*51
1507428292.4,56572,10.38,72990.3,-2.31,-3.03,-3.43,0,*57
1507428293.62,56573,10.38,72990.5,-2.29,-3.03,-3.35,0,*5E
1507428294.86,56574,10.31,72986.3,-2.29,-3.03,-3.43,0,*58
1507428296.06,56575,10.38,72990.0,-2.27,-2.99,-3.39,0,*58
1507428297.3,56576,10.38,72992.3,-2.29,-3.03,-3.47,0,*5E
1507428298.52,56577,10.38,72994.5,-2.31,-3.03,-3.55,0,*55
1507428299.74,56578,10.38,72992.0,-2.31,-3.03,-3.55,0,*5A
1507428300.95,56579,10.38,72992.0,-2.31,-3.07,-3.55,0,*5F
1507428302.19,56580,10.38,72996.3,-2.29,-3.07,-3.55,0,*50
1507428303.41,56581,10.31,72990.3,-2.31,-3.07,-3.55,0,*58
1507428304.64,56582,10.31,72990.5,-2.33,-3.11,-3.39,0,*54
1507428305.83,56583,10.38,72992.8,-2.31,-3.03,-3.31,0,*5C
1507428307.03,56584,10.38,72992.8,-2.31,-3.07,-3.23,0,*5C
1507428308.25,56585,10.38,72992.8,-2.29,-3.03,-3.11,0,*51
1507428309.47,56586,10.31,72986.3,-2.29,-2.95,-3.19,0,*54
1507428310.7,56587,10.31,72982.5,-2.29,-2.95,-3.11,0,*5D
1507428311.93,56588,10.38,72986.8,-2.29,-2.95,-3.19,0,*5A
1507428313.15,56589,10.38,72986.0,-2.29,-3.03,-3.11,0,*5D
1507428314.34,56590,10.38,72988.5,-2.31,-2.91,-3.11,0,*56
1507428315.56,56591,10.38,72988.0,-2.33,-2.99,-3.23,0,*5C
1507428316.79,56592,10.38,72986.5,-2.29,-2.95,-3.19,0,*51
1507428318.01,56593,10.38,72986.5,-2.29,-2.95,-3.19,0,*50
1507428319.23,56594,10.38,72988.3,-2.29,-2.95,-3.23,0,*5E
1507428320.45,56595,10.38,72994.3,-2.29,-3.03,-3.31,0,*52
1507428321.67,56596,10.38,72992.0,-2.29,-3.03,-3.31,0,*51
1507428322.89,56597,10.38,72992.5,-2.29,-3.07,-3.31,0,*54
1507428324.11,56598,10.38,72994.3,-2.29,-3.03,-3.31,0,*5F
1507428325.33,56599,10.38,72998.0,-2.31,-3.03,-3.43,0,*52
1507428326.55,56600,10.38,72994.8,-2.31,-3.03,-3.43,0,*51
1507428327.79,56601,10.38,72994.5,-2.29,-3.07,-3.47,0,*59
1507428329.03,56602,10.38,72996.5,-2.29,-3.03,-3.55,0,*5D
1507428330.28,56603,10.38,72994.3,-2.29,-3.03,-3.59,0,*50
1507428331.51,56604,10.38,72994.3,-2.29,-3.03,-3.71,0,*5D
1507428332.71,56605,10.38,72992.8,-2.27,-3.03,-3.75,0,*56
1507428333.92,56606,10.38,72992.8,-2.27,-3.03,-3.75,0,*55
1507428335.14,56607,10.38,72994.8,-2.29,-3.11,-3.79,0,*55
1507428336.36,56608,10.38,72990.3,-2.29,-3.11,-3.79,0,*5A
1507428337.58,56609,10.38,72988.8,-2.31,-3.11,-3.71,0,*5A
1507428338.82,56610,10.38,72990.3,-2.29,-3.07,-3.71,0,*5C
1507428340.04,56611,10.38,72990.8,-2.31,-3.07,-3.71,0,*54
1507428341.28,56612,10.38,72986.3,-2.33,-3.11,-3.63,0,*51
1507428342.53,56613,10.38,72986.0,-2.29,-3.07,-3.59,0,*55
1507428343.78,56614,10.38,72984.5,-2.29,-3.03,-3.59,0,*56
1507428345.02,56615,10.38,72978.5,-2.29,-3.03,-3.47,0,*58
1507428346.25,56616,10.38,72978.8,-2.29,-3.03,-3.47,0,*5B
1507428347.5,56617,10.38,72976.0,-2.29,-2.95,-3.47,0,*54
1507428348.74,56618,10.38,72974.0,-2.29,-3.03,-3.55,0,*56
1507428349.98,56619,10.38,72972.3,-2.29,-3.03,-3.55,0,*57
1507428351.2,56620,10.38,72974.3,-2.31,-3.03,-3.55,0,*54
1507428352.42,56621,10.38,72978.0,-2.31,-2.95,-3.47,0,*58
1507428353.67,56622,10.31,72978.5,-2.29,-2.95,-3.47,0,*52
1507428354.91,56623,10.38,72984.3,-2.29,-2.95,-3.55,0,*50
1507428356.16,56624,10.38,72978.5,-2.29,-2.95,-3.47,0,*54
1507428357.38,56625,10.38,72980.3,-2.29,-2.91,-3.39,0,*58
1507428358.6,56626,10.31,72976.8,-2.29,-2.95,-3.31,0,*57
1507428359.83,56627,10.38,72980.5,-2.29,-2.95,-3.35,0,*52
1507428361.05,56628,10.38,72982.3,-2.29,-2.91,-3.35,0,*59
1507428362.26,56629,10.38,72978.8,-2.29,-2.91,-3.23,0,*5F
1507428363.47,56630,10.38,72976.5,-2.29,-2.91,-3.31,0,*54
1507428364.69,56631,10.38,72982.8,-2.29,-2.79,-3.23,0,*50
1507428365.9,56632,10.38,72982.0,-2.29,-2.79,-3.23,0,*53
1507428367.1,56633,10.38,72976.0,-2.27,-2.79,-3.19,0,*55
1507428368.31,56634,10.38,72978.0,-2.29,-2.83,-3.31,0,*53
1507428369.53,56635,10.38,72980.3,-2.29,-2.91,-3.31,0,*51
1507428370.73,56636,10.38,72980.0,-2.27,-2.87,-3.35,0,*5F
1507428371.94,56637,10.38,72980.5,-2.29,-2.91,-3.31,0,*53
1507428373.18,56638,10.38,72986.5,-2.29,-2.91,-3.43,0,*59
1507428374.39,56639,10.38,72990.3,-2.27,-2.91,-3.51,0,*55
1507428375.61,56640,10.38,72990.5,-2.27,-2.91,-3.51,0,*5B
1507428376.85,56641,10.38,72994.0,-2.29,-2.95,-3.47,0,*57
1507428378.07,56642,10.38,72990.3,-2.27,-2.91,-3.51,0,*59
1507428379.29,56643,10.38,72994.0,-2.27,-2.99,-3.51,0,*50
1507428380.51,56644,10.38,72990.5,-2.27,-2.99,-3.43,0,*54
1507428381.7,56645,10.38,72992.0,-2.27,-2.91,-3.39,0,*50
1507428382.89,56646,10.38,72996.0,-2.27,-2.91,-3.15,0,*5D
1507428384.08,56647,10.38,72992.8,-2.27,-2.91,-3.15,0,*5C
1507428385.28,56648,10.38,72994.3,-2.27,-2.87,-3.15,0,*54
1507428386.47,56649,10.38,72992.0,-2.27,-2.87,-3.07,0,*56
1507428387.69,56650,10.38,72992.3,-2.29,-2.95,-3.23,0,*55
1507428388.89,56651,10.38,72994.8,-2.27,-2.87,-3.19,0,*50
1507428390.11,56652,10.38,72988.5,-2.29,-2.95,-3.23,0,*57
1507428391.3,56653,10.38,72988.5,-2.27,-2.91,-3.11,0,*5D
1507428392.52,56654,10.38,72984.8,-2.29,-2.83,-3.11,0,*57
1507428393.72,56655,10.38,72976.3,-2.27,-2.79,-3.07,0,*5A
1507428394.91,56656,10.38,72984.3,-2.27,-2.87,-3.07,0,*58
1507428396.11,56657,10.38,72984.5,-2.23,-2.87,-3.03,0,*59
1507428397.34,56658,10.38,72982.5,-2.21,-2.83,-2.99,0,*52
1507428398.53,56659,10.38,72984.0,-2.23,-2.87,-3.03,0,*57
1507428399.73,56660,10.38,72986.0,-2.27,-2.87,-3.03,0,*59
1507428400.93,56661,10.38,72992.0,-2.27,-2.87,-3.07,0,*5C
1507428402.12,56662,10.38,72988.0,-2.27,-2.87,-3.15,0,*5C
1507428403.32,56663,10.38,72988.5,-2.27,-2.95,-3.19,0,*52
1507428404.52,56664,10.38,72988.0,-2.27,-2.87,-3.15,0,*5A
1507428405.71,56665,10.31,72982.8,-2.27,-2.87,-3.15,0,*5B
1507428406.91,56666,10.38,72986.0,-2.27,-2.87,-3.07,0,*5B
1507428408.11,56667,10.38,72988.3,-2.27,-2.87,-3.07,0,*5A
1507428409.3,56668,10.38,72988.5,-2.27,-2.87,-3.07,0,*55
1507428410.5,56669,10.38,72990.8,-2.27,-2.91,-3.07,0,*53
1507428411.69,56670,10.38,72990.8,-2.27,-2.91,-3.07,0,*5B
1507428412.88,56671,10.38,72988.8,-2.27,-2.91,-3.15,0,*59
1507428414.11,56672,10.38,72988.5,-2.29,-2.95,-3.19,0,*5C
1507428415.3,56673,10.38,72988.5,-2.23,-2.91,-3.19,0,*53
1507428416.5,56674,10.38,72990.8,-2.27,-2.87,-3.27,0,*5A
1507428417.69,56675,10.38,72988.3,-2.27,-2.91,-3.27,0,*5C
1507428418.89,56676,10.38,72988.3,-2.27,-2.99,-3.31,0,*50
1507428420.09,56677,10.38,72992.0,-2.23,-2.99,-3.39,0,*5D
1507428421.31,56678,10.38,72990.5,-2.27,-3.03,-3.43,0,*59
1507428422.53,56679,10.38,72998.0,-2.27,-2.99,-3.43,0,*5A
1507428423.72,56680,10.38,72992.3,-2.27,-2.99,-3.39,0,*51
1507428424.92,56681,10.38,72994.5,-2.27,-3.03,-3.39,0,*52
1507428426.14,56682,10.38,72992.3,-2.27,-3.03,-3.43,0,*5C
1507428427.36,56683,10.38,72992.3,-2.27,-3.03,-3.43,0,*5D
1507428428.58,56684,10.38,73000.3,-2.29,-3.07,-3.35,0,*51
1507428429.77,56685,10.38,73004.0,-2.27,-3.03,-3.31,0,*5E
1507428430.99,56686,10.38,73000.8,-2.27,-3.03,-3.43,0,*58
1507428432.21,56687,10.38,72994.5,-2.23,-2.99,-3.43,0,*5F
1507428433.43,56688,10.38,72988.3,-2.23,-2.99,-3.51,0,*53
1507428434.65,56689,10.38,72988.0,-2.23,-2.99,-3.43,0,*51
1507428435.87,56690,10.38,72992.3,-2.27,-2.99,-3.51,0,*5E
1507428437.09,56691,10.38,72990.8,-2.27,-3.03,-3.43,0,*5E
1507428438.31,56692,10.38,72990.0,-2.23,-2.99,-3.43,0,*5B
1507428439.53,56693,10.38,72988.8,-2.23,-2.99,-3.43,0,*5A
1507428440.72,56694,10.38,72988.0,-2.23,-2.99,-3.31,0,*58
1507428441.91,56695,10.38,72984.5,-2.23,-2.91,-3.19,0,*5B
1507428443.13,56696,10.38,72980.5,-2.21,-2.87,-3.23,0,*54
1507428444.33,56697,10.38,72982.5,-2.23,-2.91,-3.27,0,*54
1507428445.52,56698,10.38,72976.8,-2.23,-2.91,-3.31,0,*5C
1507428446.71,56699,10.38,72976.8,-2.23,-2.91,-3.39,0,*55
1507428447.93,56700,10.38,72978.3,-2.23,-2.91,-3.43,0,*59
1507428449.12,56701,10.38,72976.0,-2.23,-2.91,-3.31,0,*5D
1507428450.34,56702,10.38,72980.5,-2.21,-2.83,-3.35,0,*5B
1507428451.53,56703,10.38,72984.8,-2.23,-2.91,-3.39,0,*57
1507428452.72,56704,10.38,72984.3,-2.23,-2.91,-3.31,0,*58
1507428453.91,56705,10.38,72986.8,-2.27,-2.91,-3.39,0,*55
1507428455.11,56706,10.38,72990.3,-2.23,-2.91,-3.31,0,*5A
1507428456.3,56707,10.38,72990.0,-2.23,-2.99,-3.39,0,*5B
1507428457.5,56708,10.38,72988.8,-2.23,-2.99,-3.15,0,*5A
1507428458.69,56709,10.38,72994.5,-2.23,-2.91,-3.07,0,*50
1507428459.89,56710,10.38,72996.3,-2.23,-2.91,-2.99,0,*5E
1507428461.12,56711,10.38,72992.5,-2.23,-2.75,-2.87,0,*5A
1507428462.34,56712,10.38,72992.0,-2.23,-2.75,-2.87,0,*59
1507428463.61,56713,10.38,72990.3,-2.21,-2.71,-2.75,0,*53
1507428464.84,56714,10.38,72988.3,-2.23,-2.71,-2.83,0,*5F
1507428466.06,56715,10.38,72994.5,-2.23,-2.75,-2.79,0,*5F
1507428467.34,56716,10.38,72988.3,-2.21,-2.71,-2.75,0,*56
1507428468.59,56717,10.38,72988.3,-2.23,-2.71,-2.75,0,*55
1507428469.86,56718,10.38,72986.3,-2.21,-2.71,-2.71,0,*5C
1507428471.11,56719,10.38,72988.3,-2.23,-2.67,-2.75,0,*5C
1507428472.39,56720,10.38,72982.3,-2.21,-2.75,-2.75,0,*57
1507428473.64,56721,10.38,72984.0,-2.23,-2.75,-2.67,0,*57
1507428474.92,56722,10.38,72982.5,-2.21,-2.75,-2.75,0,*55
1507428476.19,56723,10.38,72978.8,-2.21,-2.71,-2.71,0,*54
1507428477.45,56724,10.38,72978.8,-2.23,-2.75,-2.75,0,*51
1507428478.72,56725,10.38,72976.0,-2.21,-2.59,-2.59,0,*52
1507428479.99,56726,10.38,72988.3,-2.21,-2.63,-2.59,0,*58
1507428481.24,56727,10.38,72990.8,-2.23,-2.67,-2.67,0,*52
1507428482.52,56728,10.38,72990.0,-2.21,-2.63,-2.71,0,*5C
1507428483.8,56729,10.38,72988.8,-2.21,-2.51,-2.63,0,*5F
1507428485.07,56730,10.38,72986.0,-2.21,-2.59,-2.63,0,*5F
1507428486.34,56731,10.38,72982.5,-2.21,-2.59,-2.63,0,*5E
1507428487.59,56732,10.38,72984.5,-2.19,-2.63,-2.63,0,*5F
1507428488.84,56733,10.38,72984.8,-2.19,-2.63,-2.63,0,*5E
1507428490.12,56734,10.38,72986.3,-2.21,-2.59,-2.63,0,*5B
1507428491.4,56735,10.38,72986.8,-2.21,-2.63,-2.63,0,*53
1507428492.67,56736,10.38,72990.0,-2.21,-2.59,-2.63,0,*59
1507428493.92,56737,10.38,72990.8,-2.19,-2.63,-2.59,0,*53
1507428495.18,56738,10.38,72986.8,-2.17,-2.59,-2.59,0,*5B
1507428496.43,56739,10.38,72986.3,-2.19,-2.63,-2.63,0,*54
1507428497.68,56740,10.38,72988.3,-2.19,-2.63,-2.63,0,*5A
1507428498.93,56741,10.38,72986.3,-2.19,-2.63,-2.71,0,*58
1507428500.17,56742,10.38,72988.5,-2.19,-2.59,-2.75,0,*56
1507428501.42,56743,10.38,72992.3,-2.19,-2.59,-2.75,0,*57
1507428502.67,56744,10.38,72990.0,-2.19,-2.63,-2.75,0,*59
1507428503.88,56745,10.38,72990.3,-2.19,-2.71,-2.87,0,*56